When you browse on this site, cookies collect data to enhance your experience and personalize the content and advertising you see.
Visit our Privacy Policy to learn more. By continuing to use the site, you agree to this use of cookies and data.
  • In Hungary
  • List of Countries
  • For 7 days
  • Water Temperature
  • Satellite Maps
  • Weather Map
  • News
  • Weather Widgets
  • user-avatar
    Login

    Hourly Weather Mierzeszyn

    Today, 24 January, Thursday

    Time Temperature Precipitation Wind Pressure Humidity
    00:00 -10°C° 0 mm 3 mps 741 mmHg 84%
    01:00 -10°C° 0 mm 3 mps 741 mmHg 84%
    02:00 -10°C° 0 mm 3 mps 742 mmHg 84%
    03:00 -10°C° 0 mm 3 mps 742 mmHg 85%
    04:00 -10°C° 0 mm 3 mps 742 mmHg 85%
    05:00 -10°C° 0 mm 3 mps 742 mmHg 85%
    06:00 -10°C° 0 mm 3 mps 742 mmHg 85%
    07:00 -12°C° 0 mm 3 mps 742 mmHg 85%
    08:00 -10°C° 0 mm 3 mps 743 mmHg 83%
    09:00 -10°C° 0 mm 3 mps 743 mmHg 81%
    10:00 -10°C° 0 mm 3 mps 744 mmHg 79%
    11:00 -9°C° 0 mm 3 mps 744 mmHg 77%
    12:00 -9°C° 0 mm 4 mps 744 mmHg 74%
    13:00 -9°C° 0 mm 4 mps 744 mmHg 72%
    14:00 -9°C° 0 mm 4 mps 744 mmHg 74%
    15:00 -9°C° 0 mm 4 mps 744 mmHg 76%
    16:00 -9°C° 0 mm 4 mps 744 mmHg 79%
    17:00 -10°C° 0 mm 4 mps 744 mmHg 80%
    18:00 -10°C° 0 mm 4 mps 744 mmHg 82%
    19:00 -10°C° 0 mm 4 mps 744 mmHg 84%
    20:00 -11°C° 0 mm 4 mps 744 mmHg 84%
    21:00 -11°C° 0 mm 4 mps 744 mmHg 85%
    22:00 -10°C° 0 mm 3 mps 744 mmHg 85%
    23:00 -10°C° 0 mm 3 mps 744 mmHg 85%

    Tomorrow, 25 January, Friday

    Time Temperature Precipitation Wind Pressure Humidity
    00:00 -10°C° 0 mm 3 mps 744 mmHg 86%
    01:00 -12°C° 0 mm 3 mps 744 mmHg 86%
    02:00 -12°C° 0 mm 3 mps 744 mmHg 86%
    03:00 -12°C° 0 mm 3 mps 744 mmHg 86%
    04:00 -12°C° 0 mm 3 mps 744 mmHg 87%
    05:00 -10°C° 0 mm 2 mps 744 mmHg 86%
    06:00 -10°C° 0 mm 2 mps 744 mmHg 86%
    07:00 -10°C° 0 mm 2 mps 744 mmHg 85%
    08:00 -10°C° 0 mm 2 mps 744 mmHg 84%
    09:00 -10°C° 0 mm 2 mps 744 mmHg 82%
    10:00 -9°C° 0 mm 2 mps 743 mmHg 81%
    11:00 -8°C° 0 mm 1 mps 743 mmHg 78%
    12:00 -7°C° 0 mm 1 mps 743 mmHg 75%
    13:00 -7°C° 0 mm 1 mps 743 mmHg 72%
    14:00 -6°C° 0 mm 1 mps 743 mmHg 73%
    15:00 -6°C° 0 mm 0 mps 743 mmHg 73%
    16:00 -6°C° 0 mm 0 mps 743 mmHg 74%
    17:00 -6°C° 0 mm 1 mps 743 mmHg 75%
    18:00 -6°C° 0 mm 1 mps 743 mmHg 75%
    19:00 -6°C° 0 mm 1 mps 743 mmHg 76%
    20:00 -6°C° 0 mm 1 mps 743 mmHg 78%
    21:00 -8°C° 0 mm 2 mps 743 mmHg 80%
    22:00 -8°C° 0 mm 2 mps 743 mmHg 82%
    23:00 -8°C° 0 mm 2 mps 742 mmHg 84%

    Day after tomorrow, 26 January, Saturday

    Time Temperature Precipitation Wind Pressure Humidity
    00:00 -8°C° 0 mm 2 mps 742 mmHg 86%
    01:00 -8°C° 0 mm 2 mps 742 mmHg 89%
    02:00 -9°C° 0 mm 3 mps 741 mmHg 89%
    03:00 -8°C° 0 mm 3 mps 741 mmHg 89%
    04:00 -8°C° 0 mm 3 mps 740 mmHg 88%
    05:00 -8°C° 0 mm 3 mps 740 mmHg 86%
    06:00 -9°C° 0 mm 4 mps 739 mmHg 83%
    07:00 -9°C° 0 mm 4 mps 739 mmHg 80%
    08:00 -9°C° 0.4 mm 4 mps 738 mmHg 84%
    09:00 -10°C° 0.4 mm 5 mps 737 mmHg 87%
    10:00 -10°C° 0.4 mm 5 mps 736 mmHg 91%
    11:00 -10°C° 1 mm 5 mps 735 mmHg 92%
    12:00 -8°C° 1 mm 4 mps 734 mmHg 92%
    13:00 -8°C° 1 mm 4 mps 733 mmHg 93%
    14:00 -7°C° 0.3 mm 3 mps 733 mmHg 93%
    15:00 -6°C° 0.3 mm 2 mps 733 mmHg 94%
    16:00 -5°C° 0.3 mm 2 mps 732 mmHg 94%
    17:00 -6°C° 0 mm 2 mps 733 mmHg 94%
    18:00 -6°C° 0 mm 2 mps 733 mmHg 94%
    19:00 -7°C° 0 mm 2 mps 734 mmHg 95%
    20:00 -7°C° 0 mm 2 mps 734 mmHg 94%
    21:00 -6°C° 0 mm 1 mps 734 mmHg 94%
    22:00 -6°C° 0 mm 1 mps 735 mmHg 94%
    23:00 -7°C° 0 mm 2 mps 735 mmHg 93%

    27 January, Sunday

    Time Temperature Precipitation Wind Pressure Humidity
    00:00 -7°C° 0 mm 2 mps 735 mmHg 93%
    01:00 -7°C° 0 mm 2 mps 735 mmHg 93%
    02:00 -7°C° 0 mm 2 mps 735 mmHg 92%
    03:00 -8°C° 0 mm 3 mps 734 mmHg 92%
    04:00 -8°C° 0 mm 3 mps 734 mmHg 91%
    05:00 -8°C° 0.2 mm 3 mps 734 mmHg 92%
    06:00 -8°C° 0.2 mm 4 mps 733 mmHg 93%
    07:00 -8°C° 0.2 mm 4 mps 733 mmHg 94%
    08:00 -8°C° 0.2 mm 4 mps 733 mmHg 94%
    09:00 -7°C° 0.2 mm 4 mps 733 mmHg 95%
    10:00 -7°C° 0.2 mm 5 mps 732 mmHg 95%
    11:00 -5°C° 0.2 mm 5 mps 732 mmHg 95%
    12:00 -4°C° 0.2 mm 5 mps 731 mmHg 95%
    13:00 -2°C° 0.2 mm 5 mps 731 mmHg 95%
    14:00 -2°C° 0 mm 5 mps 730 mmHg 95%
    15:00 -2°C° 0 mm 5 mps 730 mmHg 95%
    16:00 -2°C° 0 mm 5 mps 729 mmHg 95%
    17:00 -2°C° 0.1 mm 5 mps 729 mmHg 95%
    18:00 -2°C° 0.1 mm 5 mps 729 mmHg 94%
    19:00 -2°C° 0.1 mm 5 mps 728 mmHg 94%
    20:00 -2°C° 0 mm 5 mps 728 mmHg 93%
    21:00 -2°C° 0 mm 5 mps 728 mmHg 92%
    22:00 -2°C° 0 mm 5 mps 728 mmHg 92%
    23:00 -2°C° 0 mm 5 mps 728 mmHg 91%

    28 January, Monday

    Time Temperature Precipitation Wind Pressure Humidity
    00:00 -2°C° 0 mm 5 mps 727 mmHg 91%
    01:00 -2°C° 0 mm 5 mps 727 mmHg 91%
    02:00 -4°C° 0 mm 5 mps 727 mmHg 91%
    03:00 -4°C° 0 mm 5 mps 726 mmHg 90%
    04:00 -4°C° 0 mm 5 mps 726 mmHg 90%
    05:00 -4°C° 0 mm 5 mps 726 mmHg 90%
    06:00 -4°C° 0 mm 5 mps 726 mmHg 90%
    07:00 -4°C° 0 mm 6 mps 726 mmHg 90%
    08:00 -3°C° 0 mm 6 mps 726 mmHg 89%
    09:00 -3°C° 0 mm 6 mps 726 mmHg 88%
    10:00 -3°C° 0 mm 6 mps 726 mmHg 88%
    11:00 -2°C° 0.1 mm 6 mps 725 mmHg 88%
    12:00 -2°C° 0.1 mm 7 mps 725 mmHg 88%
    13:00 -2°C° 0.1 mm 7 mps 725 mmHg 87%
    14:00 -2°C° 0 mm 7 mps 725 mmHg 88%
    15:00 -2°C° 0 mm 7 mps 725 mmHg 89%
    16:00 -1°C° 0 mm 7 mps 725 mmHg 90%
    17:00 -2°C° 0.1 mm 6 mps 726 mmHg 90%
    18:00 -2°C° 0.1 mm 6 mps 726 mmHg 91%
    19:00 -1°C° 0.1 mm 5 mps 727 mmHg 92%
    20:00 -2°C° 0 mm 6 mps 727 mmHg 90%
    21:00 -2°C° 0 mm 6 mps 727 mmHg 88%
    22:00 -3°C° 0 mm 6 mps 728 mmHg 87%
    23:00 -3°C° 0 mm 6 mps 728 mmHg 86%

    29 January, Tuesday

    Time Temperature Precipitation Wind Pressure Humidity
    00:00 -3°C° 0 mm 6 mps 729 mmHg 85%
    01:00 -3°C° 0 mm 6 mps 729 mmHg 85%
    02:00 -4°C° 0 mm 6 mps 729 mmHg 85%
    03:00 -4°C° 0 mm 6 mps 729 mmHg 85%
    04:00 -4°C° 0 mm 6 mps 729 mmHg 86%
    05:00 -4°C° 0 mm 5 mps 730 mmHg 85%
    06:00 -4°C° 0 mm 5 mps 730 mmHg 85%
    07:00 -4°C° 0 mm 5 mps 731 mmHg 85%
    08:00 -4°C° 0 mm 5 mps 731 mmHg 84%
    09:00 -4°C° 0 mm 5 mps 731 mmHg 84%
    10:00 -2°C° 0 mm 5 mps 732 mmHg 83%
    11:00 -2°C° 0 mm 5 mps 732 mmHg 83%
    12:00 -2°C° 0 mm 5 mps 732 mmHg 83%
    13:00 -2°C° 0 mm 5 mps 732 mmHg 83%
    14:00 -2°C° 0 mm 5 mps 732 mmHg 84%
    15:00 -3°C° 0 mm 4 mps 732 mmHg 84%
    16:00 -3°C° 0 mm 4 mps 732 mmHg 85%
    17:00 -3°C° 0 mm 4 mps 733 mmHg 86%
    18:00 -4°C° 0 mm 4 mps 733 mmHg 87%
    19:00 -4°C° 0 mm 4 mps 733 mmHg 88%
    20:00 -4°C° 0 mm 3 mps 733 mmHg 88%
    21:00 -5°C° 0 mm 3 mps 733 mmHg 89%
    22:00 -5°C° 0 mm 3 mps 733 mmHg 90%
    23:00 -5°C° 0 mm 3 mps 733 mmHg 91%
    Show more